sat.trackr.live / text

‹ back to catalog

STARLINK-5072

NORAD 55758 · 2023-028T

PAYLOAD ACTIVE UNKNOWN

§ Identity

Operator
Country
US
Launch date
2023-03-03
Launch site
AFWTR
Launch vehicle
Mass (kg)
RCS (m²)

Purposes: comms

External: N2YO · Heavens-Above · Gunter

§ Orbital elements

Epoch: 2026-05-25T03:14:03.551712Z

Period
96.11 min
Inclination
70.0005°
Eccentricity
0.0002730
Mean motion
14.98327676 rev/d
Perigee alt
570.2 km
Apogee alt
574.0 km
Semi-major
6,950.2 km
B*
-3.5971e-6
RAAN
51.6036°
Arg perigee
269.4156°
Mean anomaly
90.6690°
Rev number
17,749

§ Raw data

STARLINK-50721 55758U 23028T   26145.13476333 -.00000136  00000+0 -35971-5 0  99942 55758  70.0005  51.6036 0002730 269.4156  90.6690 14.98327676177491

JSON: /api/v1/satellites/55758 · /tle

For live sub-satellite position, see the globe view (requires WebGL).

§ Visibility from observer

Set your observer location to see the next 7 days of passes ≥ 10°. The values pass through the URL so the page stays shareable.

No JS? Fill the form by hand. The geolocation button needs JavaScript.